Time,TemperatureF,DewpointF,PressureIn,WindDirection,WindDirectionDegrees,WindSpeedMPH,WindSpeedGustMPH,Humidity,HourlyPrecipIn,Conditions,Clouds,dailyrainin,SoftwareType,DateUTC
2013-02-08 00:01:00,17.0,12.0,-100.00,WNW,295,2.0,4.0,83,0.00,,,0.00,,2013-02-08 06:01:00,
2013-02-08 00:11:00,17.0,12.0,-100.00,West,280,3.0,5.0,84,0.00,,,0.00,,2013-02-08 06:11:00,
2013-02-08 00:21:00,16.0,12.0,-100.00,WNW,285,2.0,4.0,85,0.00,,,0.00,,2013-02-08 06:21:00,
2013-02-08 00:32:00,16.0,12.0,-100.00,WNW,285,2.0,5.0,86,0.00,,,0.00,,2013-02-08 06:32:00,
2013-02-08 00:42:00,16.0,12.0,-100.00,WNW,295,2.0,4.0,86,0.00,,,0.00,,2013-02-08 06:42:00,
2013-02-08 00:51:00,16.0,12.0,-100.00,West,275,1.0,4.0,86,0.00,,,0.00,,2013-02-08 06:51:00,
2013-02-08 01:01:00,16.0,12.0,-100.00,WSW,250,1.0,4.0,87,0.00,,,0.00,,2013-02-08 07:01:00,
2013-02-08 01:11:00,16.0,12.0,-100.00,West,275,1.0,4.0,87,0.00,,,0.00,,2013-02-08 07:11:00,
2013-02-08 01:21:00,16.0,12.0,-100.00,ENE,70,2.0,6.0,87,0.00,,,0.00,,2013-02-08 07:21:00,
2013-02-08 01:32:00,16.0,12.0,-100.00,West,275,2.0,6.0,87,0.00,,,0.00,,2013-02-08 07:32:00,
2013-02-08 01:42:00,16.0,12.0,-100.00,WNW,290,1.0,7.0,87,0.00,,,0.00,,2013-02-08 07:42:00,
2013-02-08 01:51:00,16.0,12.0,-100.00,West,275,1.0,7.0,87,0.00,,,0.00,,2013-02-08 07:51:00,
2013-02-08 02:01:00,15.0,12.0,-100.00,WNW,285,1.0,4.0,87,0.00,,,0.00,,2013-02-08 08:01:00,
2013-02-08 02:11:00,16.0,12.0,-100.00,WSW,255,1.0,6.0,87,0.00,,,0.00,,2013-02-08 08:11:00,
2013-02-08 02:21:00,16.0,12.0,-100.00,WNW,290,1.0,6.0,87,0.00,,,0.00,,2013-02-08 08:21:00,
2013-02-08 02:32:00,15.0,12.0,-100.00,NNW,330,2.0,4.0,87,0.00,,,0.00,,2013-02-08 08:32:00,
2013-02-08 02:42:00,15.0,12.0,-100.00,NNW,330,1.0,4.0,87,0.00,,,0.00,,2013-02-08 08:42:00,
2013-02-08 02:52:00,15.0,12.0,-100.00,NW,320,1.0,7.0,87,0.00,,,0.00,,2013-02-08 08:52:00,
2013-02-08 03:03:00,15.0,12.0,-100.00,West,280,2.0,6.0,87,0.00,,,0.00,,2013-02-08 09:03:00,
2013-02-08 03:11:00,15.0,12.0,-100.00,North,0,2.0,6.0,87,0.00,,,0.00,,2013-02-08 09:11:00,
2013-02-08 03:21:00,15.0,12.0,-100.00,West,280,1.0,6.0,87,0.00,,,0.00,,2013-02-08 09:21:00,
2013-02-08 03:32:00,15.0,12.0,-100.00,NW,320,2.0,6.0,87,0.00,,,0.00,,2013-02-08 09:32:00,
2013-02-08 03:42:00,15.0,12.0,-100.00,West,260,1.0,5.0,87,0.00,,,0.00,,2013-02-08 09:42:00,
2013-02-08 03:52:00,14.0,12.0,-100.00,West,275,2.0,5.0,87,0.00,,,0.00,,2013-02-08 09:52:00,
2013-02-08 04:01:00,14.0,12.0,-100.00,WSW,250,1.0,6.0,87,0.00,,,0.00,,2013-02-08 10:01:00,
2013-02-08 04:11:00,14.0,10.0,-100.00,West,280,2.0,4.0,87,0.00,,,0.00,,2013-02-08 10:11:00,
2013-02-08 04:22:00,14.0,10.0,-100.00,NW,315,2.0,8.0,87,0.00,,,0.00,,2013-02-08 10:22:00,
2013-02-08 04:32:00,14.0,10.0,-100.00,WNW,285,2.0,6.0,87,0.00,,,0.00,,2013-02-08 10:32:00,
2013-02-08 04:42:00,14.0,10.0,-100.00,NW,310,3.0,6.0,87,0.00,,,0.00,,2013-02-08 10:42:00,
2013-02-08 04:51:00,14.0,10.0,-100.00,WNW,285,2.0,5.0,87,0.00,,,0.00,,2013-02-08 10:51:00,
2013-02-08 05:01:00,13.0,10.0,-100.00,NW,315,3.0,5.0,87,0.00,,,0.00,,2013-02-08 11:01:00,
2013-02-08 05:11:00,13.0,10.0,-100.00,NW,310,1.0,7.0,87,0.00,,,0.00,,2013-02-08 11:11:00,
2013-02-08 05:21:00,13.0,10.0,-100.00,West,280,1.0,4.0,87,0.00,,,0.00,,2013-02-08 11:21:00,
2013-02-08 05:32:00,13.0,10.0,-100.00,WNW,290,2.0,4.0,87,0.00,,,0.00,,2013-02-08 11:32:00,
2013-02-08 05:42:00,13.0,10.0,-100.00,WNW,300,2.0,6.0,87,0.00,,,0.00,,2013-02-08 11:42:00,
2013-02-08 05:52:00,13.0,10.0,-100.00,WSW,250,2.0,5.0,87,0.00,,,0.00,,2013-02-08 11:52:00,
2013-02-08 06:02:00,13.0,10.0,-100.00,North,355,1.0,4.0,87,0.00,,,0.00,,2013-02-08 12:02:00,
2013-02-08 06:11:00,14.0,10.0,-100.00,NNW,335,1.0,5.0,87,0.00,,,0.00,,2013-02-08 12:11:00,
2013-02-08 06:22:00,14.0,10.0,-100.00,West,260,1.0,4.0,87,0.00,,,0.00,,2013-02-08 12:22:00,
2013-02-08 06:33:00,14.0,10.0,-100.00,NNW,330,1.0,6.0,87,0.00,,,0.00,,2013-02-08 12:33:00,
2013-02-08 06:42:00,15.0,12.0,-100.00,NW,315,1.0,6.0,87,0.00,,,0.00,,2013-02-08 12:42:00,
2013-02-08 06:52:00,15.0,12.0,-100.00,WNW,285,2.0,7.0,86,0.00,,,0.00,,2013-02-08 12:52:00,
2013-02-08 07:01:00,16.0,12.0,-100.00,North,5,1.0,6.0,85,0.00,,,0.00,,2013-02-08 13:01:00,
2013-02-08 07:11:00,16.0,12.0,-100.00,North,5,3.0,7.0,85,0.00,,,0.00,,2013-02-08 13:11:00,
2013-02-08 07:22:00,16.0,12.0,-100.00,NNW,345,1.0,4.0,84,0.00,,,0.00,,2013-02-08 13:22:00,
2013-02-08 07:32:00,16.0,12.0,-100.00,North,0,1.0,6.0,84,0.00,,,0.00,,2013-02-08 13:32:00,
2013-02-08 07:42:00,16.0,12.0,-100.00,NW,315,1.0,5.0,83,0.00,,,0.00,,2013-02-08 13:42:00,
2013-02-08 07:51:00,16.0,12.0,-100.00,North,350,2.0,7.0,83,0.00,,,0.00,,2013-02-08 13:51:00,
2013-02-08 08:02:00,17.0,12.0,-100.00,NNE,20,2.0,6.0,82,0.00,,,0.00,,2013-02-08 14:02:00,
2013-02-08 08:11:00,17.0,12.0,-100.00,NNW,340,1.0,6.0,82,0.00,,,0.00,,2013-02-08 14:11:00,
2013-02-08 08:22:00,17.0,12.0,-100.00,North,355,2.0,4.0,81,0.00,,,0.00,,2013-02-08 14:22:00,
2013-02-08 08:32:00,18.0,12.0,-100.00,North,5,2.0,5.0,80,0.00,,,0.00,,2013-02-08 14:32:00,
2013-02-08 08:42:00,18.0,12.0,-100.00,North,5,1.0,6.0,79,0.00,,,0.00,,2013-02-08 14:42:00,
2013-02-08 08:52:00,18.0,12.0,-100.00,NW,325,2.0,5.0,77,0.00,,,0.00,,2013-02-08 14:52:00,
2013-02-08 09:02:00,19.0,12.0,-100.00,North,10,1.0,5.0,75,0.00,,,0.00,,2013-02-08 15:02:00,
2013-02-08 09:11:00,19.0,12.0,-100.00,North,10,1.0,4.0,74,0.00,,,0.00,,2013-02-08 15:11:00,
2013-02-08 09:22:00,20.0,12.0,-100.00,NNE,15,2.0,6.0,71,0.00,,,0.00,,2013-02-08 15:22:00,
2013-02-08 09:32:00,20.0,12.0,-100.00,NNE,25,2.0,4.0,69,0.00,,,0.00,,2013-02-08 15:32:00,
2013-02-08 09:42:00,21.0,12.0,-100.00,North,10,1.0,4.0,68,0.00,,,0.00,,2013-02-08 15:42:00,
2013-02-08 09:52:00,22.0,12.0,-100.00,North,0,1.0,3.0,66,0.00,,,0.00,,2013-02-08 15:52:00,
2013-02-08 10:01:00,23.0,12.0,-100.00,North,0,1.0,3.0,63,0.00,,,0.00,,2013-02-08 16:01:00,
2013-02-08 10:11:00,23.0,12.0,-100.00,NE,55,0.0,4.0,62,0.00,,,0.00,,2013-02-08 16:11:00,
2013-02-08 10:22:00,24.0,12.0,-100.00,ENE,60,1.0,4.0,59,0.00,,,0.00,,2013-02-08 16:22:00,
2013-02-08 10:32:00,24.0,10.0,-100.00,East,80,3.0,6.0,57,0.00,,,0.00,,2013-02-08 16:32:00,
2013-02-08 10:42:00,25.0,10.0,-100.00,North,5,3.0,6.0,53,0.00,,,0.00,,2013-02-08 16:42:00,
2013-02-08 10:52:00,26.0,10.0,-100.00,North,10,1.0,4.0,51,0.00,,,0.00,,2013-02-08 16:52:00,
2013-02-08 11:03:00,27.0,10.0,-100.00,ENE,70,2.0,6.0,48,0.00,,,0.00,,2013-02-08 17:03:00,
2013-02-08 11:12:00,28.0,10.0,-100.00,ENE,65,3.0,6.0,47,0.00,,,0.00,,2013-02-08 17:12:00,
2013-02-08 11:23:00,29.0,9.0,-100.00,SE,130,3.0,6.0,43,0.00,,,0.00,,2013-02-08 17:23:00,
2013-02-08 11:32:00,29.0,9.0,-100.00,East,95,4.0,7.0,41,0.00,,,0.00,,2013-02-08 17:32:00,
2013-02-08 11:42:00,31.0,10.0,-100.00,ENE,75,3.0,7.0,41,0.00,,,0.00,,2013-02-08 17:42:00,
2013-02-08 11:52:00,31.0,9.0,-100.00,ENE,70,2.0,7.0,39,0.00,,,0.00,,2013-02-08 17:52:00,
2013-02-08 12:02:00,30.0,9.0,-100.00,NE,55,2.0,7.0,40,0.00,,,0.00,,2013-02-08 18:02:00,
2013-02-08 12:12:00,28.0,7.0,-100.00,East,90,2.0,7.0,41,0.00,,,0.00,,2013-02-08 18:12:00,
2013-02-08 12:24:00,28.0,9.0,-100.00,South,185,2.0,6.0,43,0.00,,,0.00,,2013-02-08 18:24:00,
2013-02-08 12:34:00,27.0,9.0,-100.00,East,90,1.0,6.0,43,0.00,,,0.00,,2013-02-08 18:34:00,
2013-02-08 12:43:00,26.0,7.0,-100.00,East,90,1.0,6.0,45,0.00,,,0.00,,2013-02-08 18:43:00,
2013-02-08 12:52:00,26.0,9.0,-100.00,SE,130,2.0,6.0,47,0.00,,,0.00,,2013-02-08 18:52:00,
2013-02-08 13:02:00,26.0,9.0,-100.00,ESE,115,2.0,4.0,48,0.00,,,0.00,,2013-02-08 19:02:00,
2013-02-08 13:11:00,25.0,9.0,-100.00,ENE,70,3.0,6.0,49,0.00,,,0.00,,2013-02-08 19:11:00,
2013-02-08 13:22:00,26.0,9.0,-100.00,SSE,155,1.0,4.0,49,0.00,,,0.00,,2013-02-08 19:22:00,
2013-02-08 13:32:00,25.0,10.0,-100.00,East,85,4.0,7.0,51,0.00,,,0.00,,2013-02-08 19:32:00,
2013-02-08 13:42:00,25.0,10.0,-100.00,SSE,160,1.0,4.0,53,0.00,,,0.00,,2013-02-08 19:42:00,
2013-02-08 13:52:00,25.0,10.0,-100.00,SE,125,1.0,4.0,55,0.00,,,0.00,,2013-02-08 19:52:00,
2013-02-08 14:02:00,25.0,10.0,-100.00,SSE,165,2.0,4.0,55,0.00,,,0.00,,2013-02-08 20:02:00,
2013-02-08 14:11:00,25.0,10.0,-100.00,SSE,155,1.0,6.0,54,0.00,,,0.00,,2013-02-08 20:11:00,
2013-02-08 14:22:00,25.0,10.0,-100.00,SSE,150,2.0,4.0,53,0.00,,,0.00,,2013-02-08 20:22:00,
2013-02-08 14:32:00,24.0,10.0,-100.00,East,100,1.0,3.0,54,0.00,,,0.00,,2013-02-08 20:32:00,
2013-02-08 14:42:00,24.0,10.0,-100.00,SE,130,1.0,6.0,55,0.00,,,0.00,,2013-02-08 20:42:00,
2013-02-08 14:52:00,24.0,10.0,-100.00,East,95,2.0,6.0,55,0.00,,,0.00,,2013-02-08 20:52:00,
2013-02-08 15:02:00,24.0,10.0,-100.00,ENE,70,2.0,4.0,56,0.00,,,0.00,,2013-02-08 21:02:00,
2013-02-08 15:11:00,24.0,10.0,-100.00,East,100,1.0,4.0,56,0.00,,,0.00,,2013-02-08 21:11:00,
2013-02-08 15:22:00,25.0,10.0,-100.00,ESE,115,1.0,5.0,56,0.00,,,0.00,,2013-02-08 21:22:00,
2013-02-08 15:32:00,25.0,10.0,-100.00,East,80,2.0,7.0,55,0.00,,,0.00,,2013-02-08 21:32:00,
2013-02-08 15:42:00,25.0,10.0,-100.00,East,100,3.0,6.0,53,0.00,,,0.00,,2013-02-08 21:42:00,
2013-02-08 15:52:00,25.0,10.0,-100.00,East,90,2.0,6.0,53,0.00,,,0.00,,2013-02-08 21:52:00,
2013-02-08 16:02:00,25.0,10.0,-100.00,East,85,1.0,6.0,53,0.00,,,0.00,,2013-02-08 22:02:00,
2013-02-08 16:11:00,24.0,10.0,-100.00,East,100,2.0,4.0,53,0.00,,,0.00,,2013-02-08 22:11:00,
2013-02-08 16:22:00,23.0,9.0,-100.00,SE,125,3.0,6.0,55,0.00,,,0.00,,2013-02-08 22:22:00,
2013-02-08 16:32:00,24.0,10.0,-100.00,SSW,210,0.0,4.0,56,0.00,,,0.00,,2013-02-08 22:32:00,
2013-02-08 16:42:00,24.0,10.0,-100.00,East,85,1.0,6.0,56,0.00,,,0.00,,2013-02-08 22:42:00,
2013-02-08 16:52:00,23.0,10.0,-100.00,SSE,165,0.0,7.0,58,0.00,,,0.00,,2013-02-08 22:52:00,
2013-02-08 17:01:00,22.0,10.0,-100.00,WSW,250,1.0,3.0,60,0.00,,,0.00,,2013-02-08 23:01:00,
2013-02-08 17:11:00,22.0,10.0,-100.00,SSE,160,2.0,4.0,61,0.00,,,0.00,,2013-02-08 23:11:00,
2013-02-08 17:21:00,21.0,10.0,-100.00,NE,50,1.0,2.0,63,0.00,,,0.00,,2013-02-08 23:21:00,
2013-02-08 17:32:00,21.0,10.0,-100.00,North,0,1.0,4.0,65,0.00,,,0.00,,2013-02-08 23:32:00,
2013-02-08 17:42:00,21.0,12.0,-100.00,NNE,25,1.0,2.0,67,0.00,,,0.00,,2013-02-08 23:42:00,
2013-02-08 17:52:00,21.0,12.0,-100.00,ENE,75,2.0,6.0,69,0.00,,,0.00,,2013-02-08 23:52:00,
2013-02-08 18:02:00,21.0,14.0,-100.00,SE,140,3.0,9.0,70,0.00,,,0.00,,2013-02-09 00:02:00,
2013-02-08 18:11:00,22.0,14.0,-100.00,ENE,70,3.0,7.0,70,0.00,,,0.00,,2013-02-09 00:11:00,
2013-02-08 18:22:00,21.0,14.0,-100.00,South,190,1.0,4.0,71,0.00,,,0.00,,2013-02-09 00:22:00,
2013-02-08 18:32:00,22.0,14.0,-100.00,East,100,2.0,6.0,71,0.00,,,0.00,,2013-02-09 00:32:00,
2013-02-08 18:42:00,22.0,14.0,-100.00,ESE,120,4.0,11.0,71,0.00,,,0.00,,2013-02-09 00:42:00,
2013-02-08 18:52:00,22.0,14.0,-100.00,SE,125,5.0,10.0,71,0.00,,,0.00,,2013-02-09 00:52:00,
2013-02-08 19:01:00,22.0,14.0,-100.00,SE,130,4.0,10.0,71,0.00,,,0.00,,2013-02-09 01:01:00,
2013-02-08 19:11:00,22.0,14.0,-100.00,SSE,160,3.0,7.0,71,0.00,,,0.00,,2013-02-09 01:11:00,
2013-02-08 19:22:00,22.0,14.0,-100.00,SE,125,3.0,9.0,72,0.00,,,0.00,,2013-02-09 01:22:00,
2013-02-08 19:32:00,22.0,14.0,-100.00,ESE,115,3.0,9.0,71,0.00,,,0.00,,2013-02-09 01:32:00,
2013-02-08 19:42:00,22.0,14.0,-100.00,East,100,4.0,9.0,71,0.00,,,0.00,,2013-02-09 01:42:00,
2013-02-08 19:52:00,22.0,14.0,-100.00,SE,130,2.0,6.0,71,0.00,,,0.00,,2013-02-09 01:52:00,
2013-02-08 20:01:00,22.0,14.0,-100.00,ESE,115,2.0,6.0,71,0.00,,,0.00,,2013-02-09 02:01:00,
2013-02-08 20:11:00,22.0,14.0,-100.00,East,85,3.0,7.0,72,0.00,,,0.00,,2013-02-09 02:11:00,
2013-02-08 20:21:00,22.0,14.0,-100.00,East,100,4.0,9.0,72,0.00,,,0.00,,2013-02-09 02:21:00,
2013-02-08 20:32:00,22.0,14.0,-100.00,ESE,115,3.0,7.0,72,0.00,,,0.00,,2013-02-09 02:32:00,
2013-02-08 20:42:00,22.0,16.0,-100.00,ESE,115,2.0,9.0,73,0.00,,,0.00,,2013-02-09 02:42:00,
2013-02-08 20:52:00,22.0,16.0,-100.00,SE,140,3.0,9.0,74,0.00,,,0.00,,2013-02-09 02:52:00,
2013-02-08 21:02:00,22.0,16.0,-100.00,East,95,2.0,6.0,74,0.00,,,0.00,,2013-02-09 03:02:00,
2013-02-08 21:11:00,22.0,16.0,-100.00,ESE,110,4.0,7.0,74,0.00,,,0.00,,2013-02-09 03:11:00,
2013-02-08 21:22:00,22.0,16.0,-100.00,SE,135,4.0,9.0,75,0.00,,,0.00,,2013-02-09 03:22:00,
2013-02-08 21:32:00,22.0,16.0,-100.00,SE,125,4.0,10.0,76,0.00,,,0.00,,2013-02-09 03:32:00,
2013-02-08 21:42:00,22.0,16.0,-100.00,ESE,115,4.0,9.0,77,0.00,,,0.00,,2013-02-09 03:42:00,
2013-02-08 21:52:00,22.0,16.0,-100.00,East,95,4.0,9.0,77,0.00,,,0.00,,2013-02-09 03:52:00,
2013-02-08 22:02:00,22.0,18.0,-100.00,East,95,2.0,9.0,78,0.00,,,0.00,,2013-02-09 04:02:00,
2013-02-08 22:12:00,23.0,18.0,-100.00,ESE,105,3.0,7.0,79,0.00,,,0.00,,2013-02-09 04:12:00,
2013-02-08 22:22:00,23.0,18.0,-100.00,ESE,110,4.0,9.0,80,0.00,,,0.00,,2013-02-09 04:22:00,
2013-02-08 22:23:00,23.0,18.0,-100.00,SE,130,3.0,9.0,79,0.00,,,0.00,,2013-02-09 04:23:00,
2013-02-08 22:32:00,23.0,18.0,-100.00,East,90,3.0,9.0,80,0.00,,,0.00,,2013-02-09 04:32:00,
2013-02-08 22:42:00,23.0,18.0,-100.00,SE,130,2.0,9.0,80,0.00,,,0.00,,2013-02-09 04:42:00,
2013-02-08 22:52:00,23.0,18.0,-100.00,ESE,110,3.0,8.0,80,0.00,,,0.00,,2013-02-09 04:52:00,
2013-02-08 23:02:00,23.0,18.0,-100.00,ESE,110,4.0,9.0,80,0.00,,,0.00,,2013-02-09 05:02:00,
2013-02-08 23:12:00,23.0,18.0,-100.00,ESE,110,4.0,9.0,80,0.00,,,0.00,,2013-02-09 05:12:00,
2013-02-08 23:32:00,23.0,19.0,-100.00,SE,135,4.0,-999.0,81,0.00,,,0.00,,2013-02-09 05:32:00,
2013-02-08 23:42:00,23.0,18.0,-100.00,East,85,1.0,6.0,81,0.00,,,0.00,,2013-02-09 05:42:00,
2013-02-08 23:52:00,23.0,18.0,-100.00,SE,140,2.0,9.0,81,0.00,,,0.00,,2013-02-09 05:52:00,